Regional Weather Roundup
Issued by NWS New Orleans/Baton Rouge, LA

Home | Current Version | Previous Version | Graphics & Text | Print | Product List | Glossary On
Versions: 1 2 3 4 5 6 7 8 9 10 11 12 13 14 15 16 17 18 19 20 21 22 23 24 25 26 27 28 29 30 31 32 33 34 35 36 37 38 39 40 41 42 43 44 45 46 47 48 49 50
125
ASUS44 KLIX 280805
RWRLIX
NEW ORLEANS REGIONAL WEATHER ROUNDUP
NATIONAL WEATHER SERVICE NEW ORLEANS LA
300 AM CDT THU AUG 28 2014

NOTE: "FAIR" INDICATES FEW OR NO CLOUDS BELOW 12,000 FEET WITH NO
      SIGNIFICANT WEATHER AND/OR OBSTRUCTIONS TO VISIBILITY.
      SKY/WX - SKY CONDITION AND SIGNIFICANT WEATHER.
      TMP - AIR TEMPERATURE.     DP    - DEWPOINT TEMPERATURE.
      RH  - RELATIVE HUMIDITY.   PRES  - PRESSURE.
      HI  - HEAT INDEX.          WCI   - WIND CHILL INDEX.

*  THESE STATIONS ARE NOT NWS OR FAA STATIONS AND ARE NOT UNDER
   NWS QUALITY CONTROL.

LAZ038-040-048-061>063-065>067-069-280900-
SOUTHEAST LOUISIANA

CITY           SKY/WX    TMP DP  RH WIND       PRES   REMARKS
N.O. AUDUBON     N/A     81  76  83 MISG        N/A
N.O. INTL ARPT MOCLDY    81  74  79 E3        29.97F
N.O. LAKEFRONT MOCLDY    80  75  84 S3        29.98F
N.O. DOWNTOWN*   N/A     82  72  69 SE3       29.98F
SLIDELL        MOCLDY    76  73  91 CALM      29.97F
BATON ROUGE    MOCLDY    76  74  93 NE3       29.98F
BOOTHVILLE     PTCLDY    81  77  88 CALM      29.97F
BELLE CHASSE   PTCLDY    76  72  87 CALM      29.97F
BOGALUSA*      CLOUDY    77  73  87 CALM      30.00F
GALLIANO*      NOT AVBL
NEW ROADS*       N/A     74  74  98 CALM      29.98F FOG
GONZALES*        N/A     76  76 100 CALM      29.97F
HAMMOND*       MOCLDY    75  72  88 CALM      30.00S
HOUMA*         MOCLDY    77  73  90 NE3       29.96F
PORT FOURCHON* SUNNY     84  75  74 SE7       29.97F

$$

MSZ070-080>082-280900-
SOUTHERN MISSISSIPPI

CITY           SKY/WX    TMP DP  RH WIND       PRES   REMARKS
MCCOMB         PTCLDY    75  71  87 CALM      30.00F
GULFPORT       MOCLDY    77  74  90 CALM      29.97F
BILOXI         MOCLDY    78  75  91 NE1       29.98S
PASCAGOULA     MOCLDY    72  71  97 CALM      29.98F

$$

COASTAL OBSERVATIONS
LAKE AND NEARSHORE STATIONS

STATION/POSITION TIME  TEMP    WIND        PRES    WAVE
                       AIR SEA DIR/SP/G            HT/PER
                 (UTC) (F)     (DEG/KT/KT) (MB)    (FT/S)
PASCAGOULA       0800   78     360/  3/  3 1014.7
WAVELAND YACHT   0800   81      CALM  /  1 1014.5
GRAND ISLE       0800   83 84  130/  4/  5 1015.1
SOUTHWEST PASS   0800   84 88  120/ 10/ 12 1014.9
NEW CANAL        0800   81 84   CALM  /  1 1015.4
SHELL BEACH      0800   82 81  150/  3/  3 1014.8

OFFSHORE STATIONS

STATION/POSITION TIME  TEMP    WIND        PRES    WAVE
                       AIR SEA DIR/SP/G            HT/PER
                 (UTC) (F)     (DEG/KT/KT) (MB)    (FT/S)
64 S DAUPHIN ISL 0651   85 85  110/  8/ 10 1015.1

$$




USA.gov is the U.S. government's official web portal to all federal, state and local government web resources and services.